ATS 1 1 02608U 66110A 10069.92131278 .00000000 00000-0 10000-3 0 646 2 02608 7.4506 309.3453 0002426 213.3259 146.6333 1.00288942 75187 ATS 3 1 03029U 67111A 10070.53879384 -.00000110 00000-0 10000-3 0 5886 2 03029 9.0354 316.5133 0017301 47.2241 254.0820 1.00272015155056 ORIZURU (DEBUT) 1 20479U 90013B 10070.16057006 -.00000064 00000-0 -61906-4 0 5228 2 20479 99.0486 307.8989 0538862 280.6774 73.4120 12.83692459941280 SURFSAT 1 23711U 95059B 10070.50896906 -.00000128 00000-0 -16392-3 0 4669 2 23711 100.3127 70.4572 0367878 228.6917 128.2037 13.12571682687504 MAQSAT H 1 25023U 97066A 10070.26759871 -.00000053 00000-0 80201-3 0 7736 2 25023 7.7653 62.3476 6506871 91.4875 338.4109 3.09470765139627 MAQSAT B 1 25024U 97066B 10069.26818463 -.00000221 00000-0 -68105-4 0 8221 2 25024 7.7924 59.3465 6523127 96.6876 336.0679 3.08764295139476 TEAMSAT 1 25025U 97066C 10071.09144101 -.00000093 00000-0 16956-3 0 8230 2 25025 7.8123 73.2976 6518847 69.0433 346.5817 3.07909360139133 OPAL (OO-38) 1 26063U 00004C 10070.10306263 -.00000034 00000-0 87045-5 0 7489 2 26063 100.2275 270.8204 0036651 229.7175 130.0799 14.35887086530257 FALCONSAT 1 26064U 00004D 10070.71488199 .00000012 00000-0 24547-4 0 7073 2 26064 100.2295 269.3807 0037753 235.8126 123.9486 14.35439115530193 PICOSAT 1 & 2 [TETHERED] 1 26080U 00004H 10071.10348357 .00000028 00000-0 27335-4 0 2964 2 26080 100.2139 297.8067 0032909 170.4884 189.6844 14.40396682530054 PICOSAT 3 1 26091U 00004J 10069.71569975 .00000233 00000-0 86224-4 0 8585 2 26091 100.2026 308.7731 0031696 133.4645 226.9179 14.43519376529871 PICOSAT 4 1 26092U 00004K 10070.58107899 .00000084 00000-0 44989-4 0 6928 2 26092 100.2074 290.9966 0035703 167.3650 192.8467 14.40359784529190 PICOSAT 5 1 26093U 00004L 10070.67513971 .00000196 00000-0 73029-4 0 5910 2 26093 100.1968 317.4206 0033023 110.6513 249.8236 14.45074679530681 PICOSAT 6 1 26094U 00004M 10071.08057201 .00000075 00000-0 42645-4 0 9310 2 26094 100.2140 289.6847 0035102 177.9436 182.1873 14.39645447528757 SNAP 1 1 26386U 00033C 10070.07250867 .00000158 00000-0 38771-4 0 9460 2 26386 98.3517 111.9182 0012683 78.6650 281.5983 14.65211193518244 CHAMP 1 26405U 00039B 10071.13598405 .00039114 -73987-6 11351-3 0 1426 2 26405 87.2196 204.0068 0002231 92.0106 268.1456 15.92719699552167 PICOSAT 9 1 26930U 01043B 10070.50896922 -.00000092 00000-0 -33811-5 0 3861 2 26930 67.0006 71.8892 0010838 261.6632 98.3257 14.30064123440963 PROBA-1 1 26958U 01049B 10071.18372397 .00000122 00000-0 17771-4 0 5148 2 26958 97.5837 128.7092 0080849 197.5919 162.2546 14.89751879455728 CUTE-1 (CO-55) 1 27844U 03031E 10070.69398388 .00000073 00000-0 54016-4 0 7981 2 27844 98.7142 81.0627 0010916 90.7783 269.4632 14.20689869347248 CANX-1 1 27847U 03031H 10069.49018462 .00000025 00000-0 31868-4 0 7204 2 27847 98.7037 80.7609 0010381 74.9496 285.2849 14.20999416347115 CUBESAT XI-IV (CO-57) 1 27848U 03031J 10070.21633136 -.00000002 00000-0 19561-4 0 7503 2 27848 98.7165 79.6677 0010519 96.0666 264.1693 14.20483991347138 NAXING 1 1 28221U 04012B 10071.11064964 .00000277 00000-0 35656-4 0 4307 2 28221 97.4646 96.1457 0012564 34.6510 325.5596 14.87978395320159 ST5-A 1 28980U 06008A 10070.90868111 .00003218 00000-0 18712-3 0 2408 2 28980 105.6880 76.1973 2347749 259.7632 73.2621 10.63343606153417 ST5-B 1 28981U 06008B 10071.12456460 .00008038 18197-5 26992-3 0 3062 2 28981 105.6266 102.8163 2315800 230.5389 106.7102 10.78192117154628 ST5-C 1 28982U 06008C 10071.14693376 .00007972 18041-5 31363-3 0 3033 2 28982 105.6559 95.9974 2329167 241.1777 93.6098 10.73320441154239 GENESIS 1 1 29252U 06029A 10069.92751967 .00000322 00000-0 36254-4 0 03 2 29252 64.5089 221.8270 0003194 31.9074 328.2258 15.03542541201011 FALCONSAT-3 1 30776U 07006E 10070.00843042 .00000614 00000-0 47164-4 0 7822 2 30776 35.4342 280.2972 0001429 5.6530 354.4202 15.03513024165276 GENESIS 2 1 31789U 07028A 10071.00602614 .00000327 00000-0 37029-4 0 7493 2 31789 64.5050 249.8369 0042669 223.2927 136.4833 15.03215944148381 APRIZESAT 4 1 35684U 09041D 10070.75526197 .00000200 00000-0 36372-4 0 2057 2 35684 98.1120 331.1413 0050094 357.7439 2.3572 14.76054744 33198 APRIZESAT 3 1 35686U 09041F 10070.85351433 .00000194 00000-0 30108-4 0 1972 2 35686 98.1133 333.5460 0079848 354.8393 5.1982 14.82538726 33355 PROBA-2 1 36037U 09059B 10070.55091142 -.00000045 00000-0 00000+0 0 1099 2 36037 98.3104 259.6127 0012465 213.8990 146.1408 14.51975379 18787